Regional Weather Roundup
Issued by NWS

Home | Current Version | Previous Version | Text Only | Print | Product List | Glossary Off
Versions: 1 2 3 4 5 6 7 8 9 10 11 12 13 14 15 16 17 18 19 20 21 22 23 24 25 26 27 28 29 30 31 32 33 34 35 36 37 38 39 40 41 42 43 44 45 46 47 48 49 50

000
ASUS43 KIND 282200
RWRIN

WEATHER ROUNDUP FOR INDIANA
NATIONAL WEATHER SERVICE INDIANAPOLIS IN
600 PM EDT WED JUN 28 2017

NOTE: "FAIR" INDICATES FEW OR NO CLOUDS BELOW 12,000 FEET WITH NO
SIGNIFICANT WEATHER AND/OR OBSTRUCTIONS TO VISIBILITY.

* - STATION DOES NOT REPORT WEATHER SUCH AS PRECIPITATION OR FOG.

+ - STATION NOT QUALITY CONTROLLED BY THE NATIONAL WEATHER SERVICE.
    USE DATA WITH CAUTION...ESPECIALLY DEWPOINT AND RELATIVE
    HUMIDITY OBSERVATIONS.

INZ001>003-010>013-019-020-282300-
NORTHWEST INDIANA

CITY           SKY/WX    TMP DP  RH WIND       PRES   REMARKS
KNOX *+        MOSUNNY   79  45  29 S15G23    29.92F
MICHIGAN CITY+ MOSUNNY   79  55  44 S16G24    29.88F
MONTICELLO +   CLOUDY    79  55  43 S16G24    29.94S
RENSSELAER +   CLOUDY    81  50  34 S20       29.92F

$$

LMZ046-743>745-282300-
SOUTHERN LAKE MICHIGAN

STATION/POSITION TIME  TEMP    WIND        PRES    WAVE
                       AIR SEA DIR/SP/G            HT
                 (UTC) (F)     (DEG/KT/KT) (MB)    (FT)
BURNS HARBOR     2140   79     190/ 25/ 34 1011.2F
MICHIGAN CITY    2130   77     160/ 14/ 19   N/A
5NW MICH CITY    2150   75 66  190/ 17/ 25   N/A     2

$$

INZ004-005-014>016-021>024-282300-
NORTH CENTRAL INDIANA

CITY           SKY/WX    TMP DP  RH WIND       PRES   REMARKS
ELKHART        CLOUDY    75  54  46 S12G20    29.94R
GOSHEN         CLOUDY    77  49  37 S20G28    29.95S
SOUTH BEND     CLOUDY    76  57  51 S18       29.91F

$$

INZ006>009-017-018-025>027-282300-
NORTHEAST INDIANA

CITY           SKY/WX    TMP DP  RH WIND       PRES   REMARKS
ANGOLA *+      PTSUNNY   75  70  83 SW13      29.98R
FORT WAYNE     PTSUNNY   79  51  37 S16       29.99F
KENDALLVILLE + CLOUDY    75  50  41 S13G20    29.98R

$$

INZ028-029-035-036-043>045-051>053-282300-
WEST CENTRAL INDIANA

CITY           SKY/WX    TMP DP  RH WIND       PRES   REMARKS
CRAWFORDSVL +  SUNNY     77  57  50 S12       29.97F
LAFAYETTE      CLOUDY    78  58  49 S8        29.94F
TERRE HAUTE    CLOUDY    81  58  45 S18G24    29.97S

$$

INZ030>032-037>040-046>048-054>057-064-065-282300-
CENTRAL INDIANA

CITY           SKY/WX    TMP DP  RH WIND       PRES   REMARKS
CP ATTERBURY + SUNNY     79  52  38 S7G18     30.01S
COLUMBUS       MOSUNNY   81  43  26 S14G23    30.00F
GREENWOOD *+   SUNNY     80  51  36 SW10G20   30.01F
INDIANAPOLIS   PTSUNNY   80  56  43 S21       29.97F
-EAGLE CREEK   SUNNY     80  55  42 S12G21    29.98F
KOKOMO +       CLOUDY    80  56  43 S18G24    29.98F
MT COMFORT *+  SUNNY     79  52  38 S14G21    30.01S
SHELBYVILLE    SUNNY     81  51  35 S16       30.00F

$$

INZ033-034-041-042-049-050-058-059-282300-
EAST CENTRAL INDIANA

CITY           SKY/WX    TMP DP  RH WIND       PRES   REMARKS
MUNCIE         CLOUDY    79  52  38 S17G24    29.98F
RICHMOND +     MOSUNNY   77  52  41 S18G24    30.04F

$$

INZ060-061-067>069-081>083-085>088-282300-
SOUTHWEST INDIANA

CITY           SKY/WX    TMP DP  RH WIND       PRES   REMARKS
EVANSVILLE     MOSUNNY   82  58  43 S9        30.00F
HUNTINGBURG *+ CLOUDY    80  60  50 S10G18    30.01F

$$

INZ062-063-066-070>080-084-089>092-282300-
SOUTH CENTRAL AND SOUTHEAST INDIANA

CITY           SKY/WX    TMP DP  RH WIND       PRES   REMARKS
BLOOMINGTON    MOSUNNY   81  55  40 SW10      30.01S
MADISON *+     CLOUDY    81  50  34 SE7       30.06F
SEYMOUR +      CLOUDY    81  54  39 S10G16    30.01F

$$





USA.gov is the U.S. government's official web portal to all federal, state and local government web resources and services.